[[{"header":{"parameterUnit":"m.s-1","parameterCategory":1,"la1":30.2991,"la2":30.254,"lo1":-89.0895,"lo2":-89.0444,"dy":0.0017,"dx":0.0017,"nx":28,"ny":28,"refTime":"2025-09-18T03:00:00:Z","depth":0,"parameterNumber":2,"parameterNumberName":"U-component_of_WINDS"},"data":[0,0,0,0,0,0,0,0,0,0,0,0,0,0,0,0,0,0,0,0,0,0,0,0,0,0,0,0,0,0,0,0,0,0,0,0,0,0,0,0,0,0,0,0,0,0,0,0,0,0,0,0,0,0,0,0,0,0,0.0278,0.0277,0,0.0247,0.0247,0.0246,0.0271,0.0272,0.0273,0.0274,0.0239,0.0237,0.0235,0,0,0,0,0,0,0,0,0,0,0,0,0,0.0353,0.0351,0.0278,0.0277,0.0277,0.0247,0.0247,0.0246,0.0271,0.0272,0.0273,0.0275,0.0239,0.0237,0.0235,0,0,0,0,0,0,0,0,0,0,0,0,0,0.0321,0.0351,0.0278,0.0286,0.0286,0.0247,0.0247,0.0246,0.0271,0.0272,0.0274,0.0275,0.024,0.0237,0.0234,0.0185,0,0,0.0226,0.0224,0,0,0,0,0,0,0,0,0.0323,0.0318,0.0285,0.0285,0.0286,0.0265,0.026,0.0225,0.027,0.0276,0.0274,0.0276,0.0246,0.0243,0.0233,0.0183,0.0182,0.0225,0.0224,0.0222,0.0222,0,0,0,0,0,0,0,0.0325,0.0319,0.0265,0.0284,0.0285,0.0289,0.0286,0.0254,0.0252,0.0276,0.0278,0.0274,0.0246,0.0236,0.0232,0.0181,0.0225,0.0223,0.0221,0.022,0.0086,0.0084,0,0,0,0,0,0,0.0327,0.0321,0.0266,0.0265,0.0308,0.0287,0.0284,0.027,0.0253,0.0252,0.0273,0.0275,0.024,0.0236,0.0231,0.017,0.0222,0.022,0.0218,0.0088,0.0086,0.0084,0,0,0,0,0,0,0.0328,0.0322,0.0268,0.0293,0.0287,0.0284,0.0268,0.0268,0.0258,0.025,0.025,0.0263,0.0241,0.0235,0.0196,0.0169,0.0218,0.0216,0.009,0.0087,0.0085,0.0048,0,0,0,0,0,0,0.033,0.0322,0.0304,0.0293,0.0285,0.0234,0.0266,0.0266,0.0253,0.0256,0.0241,0.024,0.0242,0.02,0.0193,0.0166,0.0213,0.0092,0.0089,0.0085,0.0052,0.0045,0.0039,0,0,0,0,0,0.0333,0.0295,0.0303,0.0297,0.0263,0.0233,0.0228,0.0233,0.0251,0.0232,0.0227,0.024,0.0174,0.0196,0.0188,0.016,0.0094,0.009,0.0086,0.0055,0.0046,0.0039,0,0,0,0,0,0,0.0303,0.0294,0.0303,0.026,0.0247,0.0237,0.0213,0.0224,0.0204,0.0207,0.0213,0.0209,0.0167,0.016,0.0184,0.011,0.0137,0.0131,0.0116,0.0107,0.0101,0.0102,0.0211,0,0,0,0,0,0.0291,0.0268,0.0261,0.0224,0.0217,0.0216,0.0203,0.0208,0.0194,0.0188,0.018,0.0164,0.014,0.0124,0.0101,0.0051,0.0047,0.0028,0.0021,0.0016,0.001,-0.0019,-0.0028,0.007,0.007,0.007,0,0,0.0267,0.0259,0.0244,0.0218,0.0208,0.0182,0.0211,0.0184,0.0164,0.0183,0.0145,0.0139,0.0122,0.0076,0.0056,0.0069,-0.0018,0.0011,0.0007,0.0004,-0.0024,-0.0034,-0.0042,0.0067,0.0068,0.0068,0,0,0.0209,0.0202,0.0169,0.0159,0.0144,0.0144,0.0136,0.0124,0.012,0.0083,0.0096,0.0072,0.003,0.0017,0.0005,-0.006,-0.005,-0.0067,-0.0103,-0.0131,-0.0139,-0.0146,-0.0171,-0.018,-0.0073,-0.0073,-0.0073,0,0.018,0.0143,0.0151,0.0122,0.0109,0.0126,0.0092,0.0081,0.0059,0.0049,0.0064,0.0011,0.0001,-0.0049,-0.0064,-0.0074,-0.0085,-0.0066,-0.0138,-0.0145,-0.0152,-0.0176,-0.0185,-0.0075,-0.0075,-0.0074,-0.0074,0,0.0107,0.0081,0.0057,0.0036,0.002,-0.0012,-0.0011,-0.0028,-0.0022,-0.0025,-0.0065,-0.0076,-0.0102,-0.0113,-0.0108,-0.0163,-0.0154,-0.0138,-0.0112,-0.0163,-0.0186,-0.0195,-0.0078,-0.0077,-0.0077,-0.0076,0,0,0.0028,0.0012,0.0002,-0.0008,-0.0023,-0.0044,-0.0076,-0.01,-0.0116,-0.0132,-0.016,-0.0196,-0.0182,-0.0196,-0.0192,-0.0217,-0.027,-0.0199,-0.0199,-0.0214,-0.0335,-0.0348,-0.0359,-0.0263,-0.0265,-0.0266,-0.0334,0,-0.0032,-0.0086,-0.0081,-0.0133,-0.0158,-0.0142,-0.017,-0.0184,-0.0187,-0.0211,-0.0215,-0.0242,-0.022,-0.0229,-0.0252,-0.0259,-0.0295,-0.0254,-0.0292,-0.0293,-0.029,-0.037,-0.0384,-0.0448,-0.0343,-0.0344,-0.0345,0,-0.011,-0.0128,-0.0183,-0.0196,-0.0206,-0.0231,-0.0254,-0.0276,-0.0292,-0.0293,-0.0309,-0.0301,-0.0335,-0.0306,-0.0355,-0.0327,-0.0342,-0.0348,-0.0351,-0.0356,-0.0324,-0.038,-0.0468,-0.0478,-0.0359,-0.0358,-0.0357,0,-0.0165,-0.0203,-0.0241,-0.025,-0.0266,-0.0284,-0.0292,-0.0306,-0.0321,-0.0342,-0.0352,-0.0377,-0.0391,-0.0411,-0.0411,-0.0389,-0.0461,-0.0431,-0.0465,-0.0466,-0.0483,-0.0482,-0.0577,-0.0489,-0.0489,-0.0488,-0.0488,0,-0.0235,-0.0269,-0.0266,-0.029,-0.0329,-0.0323,-0.0363,-0.0368,-0.0381,-0.0408,-0.0395,-0.042,-0.0417,-0.0443,-0.0444,-0.0486,-0.0491,-0.0495,-0.0495,-0.0498,-0.0498,-0.0509,-0.0506,-0.0491,-0.049,-0.049,-0.0489,0,-0.0304,-0.0303,-0.0344,-0.0355,-0.0359,-0.0387,-0.0398,-0.0421,-0.0424,-0.0457,-0.0465,-0.0469,-0.05,-0.0501,-0.0536,-0.0536,-0.0588,-0.0582,-0.0582,-0.0582,-0.0617,-0.0615,-0.0724,-0.0739,-0.0639,-0.064,-0.0641,0,-0.0349,-0.0376,-0.039,-0.0406,-0.0414,-0.044,-0.0456,-0.0451,-0.0468,-0.0489,-0.0511,-0.0539,-0.0562,-0.0612,-0.0619,-0.0647,-0.0643,-0.0679,-0.0647,-0.0649,-0.0647,-0.0646,-0.065,-0.0686,-0.0687,-0.0688,-0.0689,0,-0.0431,-0.043,-0.0452,-0.0475,-0.0494,-0.0512,-0.0528,-0.0543,-0.054,-0.0561,-0.0591,-0.0608,-0.0644,-0.0674,-0.07,-0.071,-0.0701,-0.0699,-0.0709,-0.0713,-0.0713,-0.0716,-0.0602,-0.0697,-0.0696,-0.0696,-0.0695,-0.0695,-0.0492,-0.0515,-0.0529,-0.0555,-0.0567,-0.0583,-0.0606,-0.0611,-0.0636,-0.0664,-0.066,-0.0694,-0.0711,-0.0746,-0.0758,-0.0786,-0.0774,-0.0787,-0.0791,-0.0795,-0.08,-0.0706,-0.079,-0.079,-0.079,-0.079,-0.079,0,-0.0575,-0.0583,-0.0607,-0.0631,-0.0652,-0.0638,-0.0657,-0.0676,-0.0706,-0.0721,-0.0744,-0.078,-0.0809,-0.0819,-0.0848,-0.0868,-0.0865,-0.0876,-0.0876,-0.0879,-0.0808,-0.0798,-0.0879,-0.0879,-0.0879,-0.0879,-0.0879,-0.0879,-0.0621,-0.0661,-0.0661,-0.0708,-0.0716,-0.0748,-0.076,-0.0776,-0.0789,-0.0829,-0.0852,-0.0858,-0.0873,-0.0902,-0.0929,-0.0932,-0.0944,-0.0958,-0.0959,-0.0893,-0.0884,-0.0875,-0.0866,-0.096,-0.096,-0.1028,-0.1029,-0.1029]},{"header":{"parameterUnit":"m.s-1","parameterCategory":1,"la1":30.2991,"la2":30.254,"lo1":-89.0895,"lo2":-89.0444,"dy":0.0017,"dx":0.0017,"nx":28,"ny":28,"refTime":"2025-09-18T03:00:00:Z","depth":0,"parameterNumber":3,"parameterNumberName":"V-component_of_WINDS"},"data":[0,0,0,0,0,0,0,0,0,0,0,0,0,0,0,0,0,0,0,0,0,0,0,0,0,0,0,0,0,0,0,0,0,0,0,0,0,0,0,0,0,0,0,0,0,0,0,0,0,0,0,0,0,0,0,0,0,0,3.5496,3.5497,0,3.5525,3.5525,3.5526,3.5494,3.5493,3.5492,3.5491,3.5517,3.5518,3.552,0,0,0,0,0,0,0,0,0,0,0,0,0,3.541,3.5412,3.5496,3.5497,3.5497,3.5525,3.5525,3.5526,3.5494,3.5493,3.5491,3.549,3.5516,3.5518,3.552,0,0,0,0,0,0,0,0,0,0,0,0,0,3.5444,3.5413,3.5496,3.5485,3.5484,3.5525,3.5525,3.5526,3.5495,3.5493,3.5491,3.5489,3.5515,3.5518,3.5521,3.5573,0,0,3.5529,3.553,0,0,0,0,0,0,0,0,3.5442,3.5447,3.5486,3.5486,3.5485,3.5504,3.5505,3.5542,3.5495,3.5491,3.5491,3.5488,3.5514,3.5517,3.5526,3.5574,3.5576,3.5529,3.5531,3.5532,3.5533,0,0,0,0,0,0,0,3.544,3.5446,3.5508,3.5487,3.5486,3.5477,3.548,3.5511,3.5512,3.5491,3.5489,3.5493,3.5513,3.5523,3.5526,3.5576,3.5529,3.5532,3.5533,3.5534,3.5667,3.5668,0,0,0,0,0,0,3.544,3.5444,3.5507,3.5509,3.5459,3.548,3.5483,3.55,3.5511,3.5511,3.5494,3.5491,3.5519,3.5523,3.5527,3.5587,3.5532,3.5535,3.5536,3.5665,3.5667,3.5669,0,0,0,0,0,0,3.5438,3.5445,3.5506,3.5476,3.5483,3.5483,3.5502,3.5501,3.5511,3.5514,3.5513,3.5505,3.5518,3.5523,3.5562,3.5587,3.5536,3.5538,3.5662,3.5665,3.5668,3.5709,0,0,0,0,0,0,3.5435,3.5445,3.5466,3.5477,3.5485,3.5541,3.5504,3.5503,3.5517,3.5513,3.5524,3.5524,3.5517,3.5558,3.5564,3.559,3.554,3.566,3.5664,3.5667,3.5705,3.5713,3.5719,0,0,0,0,0,3.5433,3.5476,3.5467,3.5475,3.5511,3.5543,3.5547,3.554,3.5519,3.5539,3.554,3.5523,3.5584,3.5562,3.5569,3.5596,3.5658,3.5663,3.5667,3.5702,3.5711,3.5719,0,0,0,0,0,0,3.5468,3.5477,3.5467,3.5516,3.5529,3.5537,3.5562,3.555,3.5568,3.5564,3.5553,3.5556,3.5596,3.56,3.5575,3.5646,3.5618,3.5623,3.5642,3.5651,3.5658,3.5654,3.5543,0,0,0,0,0,3.5481,3.5508,3.5514,3.5556,3.5563,3.5562,3.5576,3.5569,3.5581,3.5586,3.559,3.5602,3.5623,3.5638,3.5658,3.5706,3.5707,3.5728,3.5736,3.5741,3.5746,3.5769,3.5778,3.5683,3.5683,3.5683,0,0,3.5509,3.5518,3.5535,3.5564,3.5573,3.5598,3.5567,3.5596,3.5614,3.559,3.5626,3.563,3.5642,3.5685,3.5704,3.569,3.5772,3.5747,3.5751,3.5752,3.5774,3.5783,3.5791,3.5686,3.5685,3.5685,0,0,3.5573,3.5583,3.5618,3.5628,3.5642,3.5641,3.565,3.566,3.5661,3.5698,3.568,3.5701,3.5739,3.5748,3.5757,3.5823,3.5807,3.583,3.5866,3.5889,3.5896,3.5903,3.5924,3.5932,3.5835,3.5835,3.5835,0,3.5605,3.5644,3.5638,3.5667,3.5679,3.566,3.5694,3.5704,3.5724,3.5732,3.5716,3.5762,3.5769,3.5813,3.5829,3.5838,3.5845,3.5828,3.5896,3.5903,3.5909,3.5928,3.5937,3.5838,3.5837,3.5837,3.5837,0,3.5682,3.5709,3.5736,3.5756,3.5771,3.5803,3.58,3.5816,3.5808,3.5808,3.5844,3.5852,3.5872,3.5883,3.5875,3.5925,3.5915,3.5898,3.5868,3.592,3.5939,3.5946,3.5841,3.584,3.584,3.5839,0,0,3.5767,3.5783,3.5793,3.58,3.5815,3.5835,3.5865,3.5886,3.5899,3.5913,3.5937,3.5969,3.5953,3.5964,3.5957,3.5978,3.6026,3.5958,3.5958,3.5968,3.6079,3.609,3.6099,3.6017,3.6019,3.602,3.6077,0,3.5829,3.5882,3.5877,3.5927,3.595,3.5932,3.5958,3.5969,3.597,3.5989,3.5989,3.6011,3.599,3.5996,3.6016,3.6016,3.6048,3.6013,3.6037,3.6038,3.6031,3.6109,3.6121,3.6174,3.6084,3.6086,3.6087,0,3.5908,3.5925,3.5977,3.5986,3.5996,3.602,3.6037,3.6057,3.6068,3.6067,3.6079,3.6068,3.6096,3.6068,3.6106,3.6082,3.6092,3.6094,3.6096,3.6095,3.6063,3.6108,3.6191,3.6198,3.6098,3.6097,3.6096,0,3.5961,3.5998,3.6033,3.6041,3.6053,3.607,3.6075,3.6085,3.6097,3.6112,3.6119,3.6138,3.6147,3.6161,3.6155,3.6136,3.6194,3.6165,3.6191,3.6191,3.6202,3.6201,3.6286,3.6213,3.6213,3.6213,3.6213,0,3.6029,3.6061,3.6057,3.6079,3.6113,3.6106,3.6141,3.6144,3.6152,3.6173,3.6159,3.6178,3.6171,3.6189,3.6185,3.6216,3.6221,3.6219,3.6217,3.6219,3.6219,3.6223,3.6218,3.6215,3.6215,3.6214,3.6214,0,3.6093,3.6093,3.6129,3.6138,3.6141,3.6166,3.6172,3.6192,3.6192,3.6218,3.6223,3.6223,3.6244,3.624,3.6263,3.626,3.6298,3.6293,3.6294,3.6292,3.6317,3.6314,3.6405,3.6416,3.6339,3.634,3.634,0,3.6136,3.616,3.6171,3.6184,3.6191,3.6212,3.6224,3.6218,3.6231,3.6245,3.6263,3.6283,3.6298,3.6332,3.6333,3.635,3.6344,3.6375,3.6346,3.6346,3.6341,3.6338,3.634,3.6379,3.638,3.6381,3.6381,0,3.6209,3.6207,3.6226,3.6244,3.626,3.6274,3.6286,3.6297,3.6292,3.6308,3.6329,3.6341,3.6365,3.6384,3.64,3.6404,3.6391,3.6391,3.6397,3.6398,3.6397,3.6395,3.6306,3.6388,3.6387,3.6387,3.6387,3.6386,3.6262,3.6282,3.6292,3.6313,3.6322,3.6334,3.6352,3.6354,3.6372,3.6391,3.6386,3.641,3.6419,3.6439,3.6446,3.6463,3.6451,3.6461,3.6463,3.6465,3.6467,3.6396,3.6466,3.6466,3.6466,3.6466,3.6466,0,3.6333,3.6338,3.6358,3.6375,3.6391,3.638,3.6392,3.6406,3.6427,3.6438,3.6453,3.6477,3.6495,3.6498,3.6515,3.6528,3.6522,3.6532,3.653,3.6531,3.6478,3.6469,3.6537,3.6537,3.6537,3.6537,3.6537,3.6537,3.6371,3.6403,3.6402,3.6438,3.6443,3.6467,3.6475,3.6485,3.6493,3.652,3.6535,3.6537,3.6544,3.6561,3.6577,3.6577,3.6582,3.6594,3.6592,3.6542,3.6535,3.6528,3.652,3.6596,3.6596,3.6643,3.6643,3.6644]}]]